Time,TemperatureF,DewpointF,PressureIn,WindDirection,WindDirectionDegrees,WindSpeedMPH,WindSpeedGustMPH,Humidity,HourlyPrecipIn,Conditions,Clouds,dailyrainin,SoftwareType,DateUTC
2013-10-04 00:02:00,27.3,27.1,24.43,North,0,0.0,0.0,99,0.00,,,0.00,meteohub,2013-10-04 06:02:00,
2013-10-04 00:07:00,27.3,27.1,24.43,North,0,0.0,0.0,99,0.00,,,0.00,meteohub,2013-10-04 06:07:00,
2013-10-04 00:12:00,27.3,27.1,24.43,North,0,0.0,0.0,99,0.00,,,0.00,meteohub,2013-10-04 06:12:00,
2013-10-04 00:17:00,27.3,27.1,24.43,North,0,0.0,0.0,99,0.00,,,0.00,meteohub,2013-10-04 06:17:00,
2013-10-04 00:22:00,27.3,27.1,24.43,North,0,0.0,0.0,99,0.00,,,0.00,meteohub,2013-10-04 06:22:00,
2013-10-04 00:27:00,27.3,27.1,24.43,North,0,0.0,0.0,99,0.00,,,0.00,meteohub,2013-10-04 06:27:00,
2013-10-04 00:32:00,27.3,27.1,24.43,North,0,0.0,0.0,99,0.00,,,0.00,meteohub,2013-10-04 06:32:00,
2013-10-04 00:37:00,27.3,27.1,24.43,North,0,0.0,0.0,99,0.00,,,0.00,meteohub,2013-10-04 06:37:00,
2013-10-04 00:42:00,27.3,27.1,24.43,North,0,0.0,0.0,99,0.00,,,0.00,meteohub,2013-10-04 06:42:00,
2013-10-04 00:47:00,27.3,27.1,24.43,North,0,0.0,0.0,99,0.00,,,0.00,meteohub,2013-10-04 06:47:00,
2013-10-04 00:52:00,27.3,27.1,24.43,North,0,0.0,0.0,99,0.00,,,0.00,meteohub,2013-10-04 06:52:00,
2013-10-04 00:57:00,27.3,27.1,24.43,North,0,0.0,0.0,99,0.00,,,0.00,meteohub,2013-10-04 06:57:00,
2013-10-04 01:02:00,27.3,27.1,24.43,North,0,0.0,0.0,99,0.00,,,0.00,meteohub,2013-10-04 07:02:00,
2013-10-04 01:07:00,27.3,27.1,24.43,North,0,0.0,0.0,99,0.00,,,0.00,meteohub,2013-10-04 07:07:00,
2013-10-04 01:12:00,27.3,27.1,24.44,North,0,0.0,0.0,99,0.00,,,0.00,meteohub,2013-10-04 07:12:00,
2013-10-04 01:17:00,27.1,27.0,24.43,North,0,0.0,0.0,99,0.00,,,0.00,meteohub,2013-10-04 07:17:00,
2013-10-04 01:22:00,27.3,27.1,24.43,North,0,0.0,0.0,99,0.00,,,0.00,meteohub,2013-10-04 07:22:00,
2013-10-04 01:27:00,27.1,27.0,24.43,North,0,0.0,0.0,99,0.00,,,0.00,meteohub,2013-10-04 07:27:00,
2013-10-04 01:32:00,27.1,27.0,24.43,North,0,0.0,0.0,99,0.00,,,0.00,meteohub,2013-10-04 07:32:00,
2013-10-04 01:37:00,27.1,27.0,24.43,North,0,0.0,0.0,99,0.00,,,0.00,meteohub,2013-10-04 07:37:00,
2013-10-04 01:42:00,27.1,27.0,24.43,North,0,0.0,0.0,99,0.00,,,0.00,meteohub,2013-10-04 07:42:00,
2013-10-04 01:47:00,27.1,27.0,24.43,North,0,0.0,0.0,99,0.00,,,0.00,meteohub,2013-10-04 07:47:00,
2013-10-04 01:52:00,27.1,27.0,24.44,North,0,0.0,0.0,99,0.00,,,0.00,meteohub,2013-10-04 07:52:00,
2013-10-04 01:57:00,27.1,27.0,24.44,North,0,0.0,0.0,99,0.00,,,0.00,meteohub,2013-10-04 07:57:00,
2013-10-04 02:02:00,27.1,27.0,24.43,North,0,0.0,0.0,99,0.00,,,0.00,meteohub,2013-10-04 08:02:00,
2013-10-04 02:07:00,27.1,27.0,24.44,North,0,0.0,0.0,99,0.00,,,0.00,meteohub,2013-10-04 08:07:00,
2013-10-04 02:12:00,27.1,27.0,24.45,North,0,0.0,0.0,99,0.00,,,0.00,meteohub,2013-10-04 08:12:00,
2013-10-04 02:17:00,27.1,27.0,24.45,North,0,0.0,0.0,99,0.00,,,0.00,meteohub,2013-10-04 08:17:00,
2013-10-04 02:22:00,27.1,27.0,24.45,North,0,0.0,0.0,99,0.00,,,0.00,meteohub,2013-10-04 08:22:00,
2013-10-04 02:27:00,27.1,27.0,24.45,North,0,0.0,0.0,99,0.00,,,0.00,meteohub,2013-10-04 08:27:00,
2013-10-04 02:32:00,27.1,27.0,24.45,North,0,0.0,0.0,99,0.00,,,0.00,meteohub,2013-10-04 08:32:00,
2013-10-04 02:37:00,27.1,27.0,24.45,North,0,0.0,0.0,99,0.00,,,0.00,meteohub,2013-10-04 08:37:00,
2013-10-04 02:42:00,27.0,26.8,24.45,North,0,0.0,0.0,99,0.00,,,0.00,meteohub,2013-10-04 08:42:00,
2013-10-04 02:47:00,27.0,26.8,24.46,North,0,0.0,0.0,99,0.00,,,0.00,meteohub,2013-10-04 08:47:00,
2013-10-04 02:52:00,27.0,26.8,24.46,North,0,0.0,0.0,99,0.00,,,0.00,meteohub,2013-10-04 08:52:00,
2013-10-04 02:57:00,27.0,26.8,24.45,North,0,0.0,0.0,99,0.00,,,0.00,meteohub,2013-10-04 08:57:00,
2013-10-04 03:02:00,27.0,26.8,24.45,North,0,0.0,0.0,99,0.00,,,0.00,meteohub,2013-10-04 09:02:00,
2013-10-04 03:07:00,27.0,26.8,24.45,North,0,0.0,0.0,99,0.00,,,0.00,meteohub,2013-10-04 09:07:00,
2013-10-04 03:12:00,27.0,26.8,24.45,North,0,0.0,0.0,99,0.00,,,0.00,meteohub,2013-10-04 09:12:00,
2013-10-04 03:17:00,27.0,26.8,24.45,North,0,0.0,0.0,99,0.00,,,0.00,meteohub,2013-10-04 09:17:00,
2013-10-04 03:22:00,26.8,26.6,24.45,North,0,0.0,0.0,99,0.00,,,0.00,meteohub,2013-10-04 09:22:00,
2013-10-04 03:27:00,26.8,26.6,24.45,North,0,0.0,0.0,99,0.00,,,0.00,meteohub,2013-10-04 09:27:00,
2013-10-04 03:32:00,26.8,26.6,24.45,North,0,0.0,0.0,99,0.00,,,0.00,meteohub,2013-10-04 09:32:00,
2013-10-04 03:37:00,26.8,26.6,24.45,North,0,0.0,0.0,99,0.00,,,0.00,meteohub,2013-10-04 09:37:00,
2013-10-04 03:42:00,26.8,26.6,24.45,North,0,0.0,0.0,99,0.00,,,0.00,meteohub,2013-10-04 09:42:00,
2013-10-04 03:47:00,27.0,26.8,24.45,North,0,0.0,0.0,99,0.00,,,0.00,meteohub,2013-10-04 09:47:00,
2013-10-04 03:52:00,26.8,26.6,24.45,North,0,0.0,0.0,99,0.00,,,0.00,meteohub,2013-10-04 09:52:00,
2013-10-04 03:57:00,27.0,26.8,24.45,North,0,0.0,0.0,99,0.00,,,0.00,meteohub,2013-10-04 09:57:00,
2013-10-04 04:02:00,27.0,26.8,24.45,North,0,0.0,0.0,99,0.00,,,0.00,meteohub,2013-10-04 10:02:00,
2013-10-04 04:07:00,27.0,26.8,24.45,North,0,0.0,0.0,99,0.00,,,0.00,meteohub,2013-10-04 10:07:00,
2013-10-04 04:12:00,27.0,26.8,24.45,North,0,0.0,0.0,99,0.00,,,0.00,meteohub,2013-10-04 10:12:00,
2013-10-04 04:17:00,26.8,26.6,24.45,North,0,0.0,0.0,99,0.00,,,0.00,meteohub,2013-10-04 10:17:00,
2013-10-04 04:22:00,26.8,26.6,24.45,North,0,0.0,0.0,99,0.00,,,0.00,meteohub,2013-10-04 10:22:00,
2013-10-04 04:27:00,26.8,26.6,24.46,North,0,0.0,0.0,99,0.00,,,0.00,meteohub,2013-10-04 10:27:00,
2013-10-04 04:32:00,26.8,26.6,24.46,North,0,0.0,0.0,99,0.00,,,0.00,meteohub,2013-10-04 10:32:00,
2013-10-04 04:37:00,26.8,26.6,24.46,North,0,0.0,0.0,99,0.00,,,0.00,meteohub,2013-10-04 10:37:00,
2013-10-04 04:42:00,26.8,26.6,24.46,North,0,0.0,0.0,99,0.00,,,0.00,meteohub,2013-10-04 10:42:00,
2013-10-04 04:47:00,26.8,26.6,24.46,North,0,0.0,0.0,99,0.00,,,0.00,meteohub,2013-10-04 10:47:00,
2013-10-04 04:52:00,26.8,26.6,24.46,North,0,0.0,0.0,99,0.00,,,0.00,meteohub,2013-10-04 10:52:00,
2013-10-04 04:57:00,26.8,26.6,24.46,North,0,0.0,0.0,99,0.00,,,0.00,meteohub,2013-10-04 10:57:00,
2013-10-04 05:02:00,26.8,26.6,24.46,North,0,0.0,0.0,99,0.00,,,0.00,meteohub,2013-10-04 11:02:00,
2013-10-04 05:07:00,26.8,26.6,24.46,North,0,0.0,0.0,99,0.00,,,0.00,meteohub,2013-10-04 11:07:00,
2013-10-04 05:17:00,26.8,26.6,24.47,North,0,0.0,0.0,99,0.00,,,0.00,meteohub,2013-10-04 11:17:00,
2013-10-04 05:22:00,26.6,26.4,24.47,North,0,0.0,0.0,99,0.00,,,0.00,meteohub,2013-10-04 11:22:00,
2013-10-04 05:27:00,26.6,26.4,24.46,North,0,0.0,0.0,99,0.00,,,0.00,meteohub,2013-10-04 11:27:00,
2013-10-04 05:32:00,26.6,26.4,24.46,North,0,0.0,0.0,99,0.00,,,0.00,meteohub,2013-10-04 11:32:00,
2013-10-04 05:37:00,26.6,26.4,24.46,North,0,0.0,0.0,99,0.00,,,0.00,meteohub,2013-10-04 11:37:00,
2013-10-04 05:42:00,26.6,26.4,24.46,North,0,0.0,0.0,99,0.00,,,0.00,meteohub,2013-10-04 11:42:00,
2013-10-04 05:47:00,26.6,26.4,24.46,North,0,0.0,0.0,99,0.00,,,0.00,meteohub,2013-10-04 11:47:00,
2013-10-04 05:52:00,26.4,26.2,24.46,North,0,0.0,0.0,99,0.00,,,0.00,meteohub,2013-10-04 11:52:00,
2013-10-04 05:57:00,26.6,26.4,24.46,North,0,0.0,0.0,99,0.00,,,0.00,meteohub,2013-10-04 11:57:00,
2013-10-04 06:02:00,26.6,26.4,24.46,North,0,0.0,0.0,99,0.00,,,0.00,meteohub,2013-10-04 12:02:00,
2013-10-04 06:07:00,26.6,26.4,24.46,North,0,0.0,0.0,99,0.00,,,0.00,meteohub,2013-10-04 12:07:00,
2013-10-04 06:12:00,26.4,26.2,24.47,North,0,0.0,0.0,99,0.00,,,0.00,meteohub,2013-10-04 12:12:00,
2013-10-04 06:17:00,26.4,26.2,24.47,North,0,0.0,0.0,99,0.00,,,0.00,meteohub,2013-10-04 12:17:00,
2013-10-04 06:22:00,26.4,26.2,24.47,North,0,0.0,0.0,99,0.00,,,0.00,meteohub,2013-10-04 12:22:00,
2013-10-04 06:27:00,26.4,26.2,24.47,North,0,0.0,0.0,99,0.00,,,0.00,meteohub,2013-10-04 12:27:00,
2013-10-04 06:32:00,26.4,26.2,24.48,North,0,0.0,0.0,99,0.00,,,0.00,meteohub,2013-10-04 12:32:00,
2013-10-04 06:37:00,26.4,26.2,24.48,North,0,0.0,0.0,99,0.00,,,0.00,meteohub,2013-10-04 12:37:00,
2013-10-04 06:42:00,26.4,26.2,24.48,North,0,0.0,0.0,99,0.00,,,0.00,meteohub,2013-10-04 12:42:00,
2013-10-04 06:47:00,26.4,26.2,24.48,North,0,0.0,0.0,99,0.00,,,0.00,meteohub,2013-10-04 12:47:00,
2013-10-04 06:52:00,26.2,26.1,24.49,North,0,0.0,0.0,99,0.00,,,0.00,meteohub,2013-10-04 12:52:00,
2013-10-04 06:57:00,26.2,26.1,24.49,North,0,0.0,0.0,99,0.00,,,0.00,meteohub,2013-10-04 12:57:00,
2013-10-04 07:02:00,26.2,26.1,24.49,North,0,0.0,0.0,99,0.00,,,0.00,meteohub,2013-10-04 13:02:00,
2013-10-04 07:07:00,26.2,26.1,24.49,North,0,0.0,0.0,99,0.00,,,0.00,meteohub,2013-10-04 13:07:00,
2013-10-04 07:12:00,26.2,26.1,24.48,North,0,0.0,0.0,99,0.00,,,0.00,meteohub,2013-10-04 13:12:00,
2013-10-04 07:17:00,26.1,25.9,24.48,North,0,0.0,0.0,99,0.00,,,0.00,meteohub,2013-10-04 13:17:00,
2013-10-04 07:22:00,26.1,25.9,24.49,North,0,0.0,0.0,99,0.00,,,0.00,meteohub,2013-10-04 13:22:00,
2013-10-04 07:27:00,26.1,25.9,24.49,North,0,0.0,0.0,99,0.00,,,0.00,meteohub,2013-10-04 13:27:00,
2013-10-04 07:32:00,26.1,25.9,24.49,North,0,0.0,0.0,99,0.00,,,0.00,meteohub,2013-10-04 13:32:00,
2013-10-04 07:37:00,26.1,25.9,24.49,North,0,0.0,0.0,99,0.00,,,0.00,meteohub,2013-10-04 13:37:00,
2013-10-04 07:42:00,26.1,25.9,24.49,North,0,0.0,0.0,99,0.00,,,0.00,meteohub,2013-10-04 13:42:00,
2013-10-04 07:47:00,26.1,25.9,24.50,North,0,0.0,0.0,99,0.00,,,0.00,meteohub,2013-10-04 13:47:00,
2013-10-04 07:52:00,26.2,26.1,24.50,North,0,0.0,0.0,99,0.00,,,0.00,meteohub,2013-10-04 13:52:00,
2013-10-04 07:57:00,26.8,26.6,24.50,North,0,0.0,0.0,99,0.00,,,0.00,meteohub,2013-10-04 13:57:00,
2013-10-04 08:02:00,27.0,26.8,24.49,North,0,0.0,0.0,99,0.00,,,0.00,meteohub,2013-10-04 14:02:00,
2013-10-04 08:07:00,27.0,26.8,24.49,North,0,0.0,0.0,99,0.00,,,0.00,meteohub,2013-10-04 14:07:00,
2013-10-04 08:12:00,27.1,27.0,24.49,North,0,0.0,0.0,99,0.00,,,0.00,meteohub,2013-10-04 14:12:00,
2013-10-04 08:17:00,27.0,26.8,24.49,North,0,0.0,0.0,99,0.00,,,0.00,meteohub,2013-10-04 14:17:00,
2013-10-04 08:22:00,26.8,26.6,24.49,North,0,0.0,0.0,99,0.00,,,0.00,meteohub,2013-10-04 14:22:00,
2013-10-04 08:27:00,26.8,26.6,24.49,North,0,0.0,0.0,99,0.00,,,0.00,meteohub,2013-10-04 14:27:00,
2013-10-04 08:32:00,26.6,26.4,24.50,North,0,0.0,0.0,99,0.00,,,0.00,meteohub,2013-10-04 14:32:00,
2013-10-04 08:37:00,26.6,26.4,24.50,North,0,0.0,0.0,99,0.00,,,0.00,meteohub,2013-10-04 14:37:00,
2013-10-04 08:42:00,26.6,26.4,24.50,North,0,0.0,0.0,99,0.00,,,0.00,meteohub,2013-10-04 14:42:00,
2013-10-04 08:47:00,26.6,26.4,24.50,North,0,0.0,0.0,99,0.00,,,0.00,meteohub,2013-10-04 14:47:00,
2013-10-04 08:52:00,26.8,26.6,24.49,North,0,0.0,0.0,99,0.00,,,0.00,meteohub,2013-10-04 14:52:00,
2013-10-04 08:57:00,27.0,26.8,24.49,North,0,0.0,0.0,99,0.00,,,0.00,meteohub,2013-10-04 14:57:00,
2013-10-04 09:02:00,27.3,27.1,24.49,North,0,0.0,0.0,99,0.00,,,0.00,meteohub,2013-10-04 15:02:00,
2013-10-04 09:07:00,27.3,27.1,24.49,North,0,0.0,0.0,99,0.00,,,0.00,meteohub,2013-10-04 15:07:00,
2013-10-04 09:12:00,28.9,28.8,24.50,North,0,0.0,0.0,99,0.00,,,0.00,meteohub,2013-10-04 15:12:00,
2013-10-04 09:17:00,29.3,29.1,24.49,North,0,0.0,0.0,99,0.00,,,0.00,meteohub,2013-10-04 15:17:00,
2013-10-04 09:22:00,29.5,29.3,24.50,North,0,0.0,0.0,99,0.00,,,0.00,meteohub,2013-10-04 15:22:00,
2013-10-04 09:27:00,29.7,29.5,24.50,North,0,0.0,0.0,99,0.00,,,0.00,meteohub,2013-10-04 15:27:00,
2013-10-04 09:32:00,29.8,29.7,24.50,North,0,0.0,0.0,99,0.00,,,0.00,meteohub,2013-10-04 15:32:00,
2013-10-04 09:37:00,29.8,29.7,24.50,North,0,0.0,0.0,99,0.00,,,0.00,meteohub,2013-10-04 15:37:00,
2013-10-04 09:42:00,30.0,29.8,24.50,North,0,0.0,0.0,99,0.00,,,0.00,meteohub,2013-10-04 15:42:00,
2013-10-04 09:47:00,30.4,30.2,24.51,North,0,0.0,0.0,99,0.00,,,0.00,meteohub,2013-10-04 15:47:00,
2013-10-04 09:52:00,30.6,30.4,24.51,North,0,0.0,0.0,99,0.00,,,0.00,meteohub,2013-10-04 15:52:00,
2013-10-04 09:57:00,30.9,30.7,24.51,North,0,0.0,0.0,99,0.00,,,0.00,meteohub,2013-10-04 15:57:00,
2013-10-04 10:02:00,30.9,30.7,24.51,North,0,0.0,0.0,99,0.00,,,0.00,meteohub,2013-10-04 16:02:00,
2013-10-04 10:07:00,30.9,30.7,24.51,North,0,0.0,0.0,99,0.00,,,0.00,meteohub,2013-10-04 16:07:00,
2013-10-04 10:12:00,30.7,30.6,24.51,North,0,0.0,0.0,99,0.00,,,0.00,meteohub,2013-10-04 16:12:00,
2013-10-04 10:17:00,30.6,30.4,24.51,North,0,0.0,0.0,99,0.00,,,0.00,meteohub,2013-10-04 16:17:00,
2013-10-04 10:22:00,31.3,31.1,24.51,North,0,0.0,0.0,99,0.00,,,0.00,meteohub,2013-10-04 16:22:00,
2013-10-04 10:27:00,32.0,31.8,24.51,North,0,0.0,0.0,99,0.00,,,0.00,meteohub,2013-10-04 16:27:00,
2013-10-04 10:32:00,32.4,32.2,24.51,North,0,0.0,0.0,99,0.00,,,0.00,meteohub,2013-10-04 16:32:00,
2013-10-04 10:37:00,33.3,33.1,24.51,North,0,0.0,0.0,99,0.00,,,0.00,meteohub,2013-10-04 16:37:00,
2013-10-04 10:42:00,34.5,34.3,24.50,North,0,0.0,0.0,99,0.00,,,0.00,meteohub,2013-10-04 16:42:00,
2013-10-04 10:47:00,35.6,35.4,24.51,North,0,0.0,0.0,99,0.00,,,0.00,meteohub,2013-10-04 16:47:00,
2013-10-04 10:52:00,35.8,35.6,24.51,North,0,0.0,0.0,99,0.00,,,0.00,meteohub,2013-10-04 16:52:00,
2013-10-04 10:57:00,35.6,35.1,24.51,North,0,0.0,0.0,98,0.00,,,0.00,meteohub,2013-10-04 16:57:00,
2013-10-04 11:02:00,36.1,36.0,24.51,North,0,0.0,0.0,99,0.00,,,0.00,meteohub,2013-10-04 17:02:00,
2013-10-04 11:07:00,36.1,36.0,24.51,North,0,0.0,0.0,99,0.00,,,0.00,meteohub,2013-10-04 17:07:00,
2013-10-04 11:12:00,37.4,36.1,24.51,North,0,0.0,0.0,95,0.00,,,0.00,meteohub,2013-10-04 17:12:00,
2013-10-04 11:17:00,37.4,35.8,24.51,North,0,0.0,1.0,94,0.00,,,0.00,meteohub,2013-10-04 17:17:00,
2013-10-04 11:22:00,36.5,33.6,24.51,North,0,0.0,1.0,89,0.00,,,0.00,meteohub,2013-10-04 17:22:00,
2013-10-04 11:27:00,36.5,34.2,24.51,North,0,0.0,0.0,91,0.00,,,0.00,meteohub,2013-10-04 17:27:00,
2013-10-04 11:32:00,36.7,34.5,24.51,North,0,0.0,1.0,92,0.00,,,0.00,meteohub,2013-10-04 17:32:00,
2013-10-04 11:37:00,36.5,34.2,24.51,North,0,0.0,1.0,91,0.00,,,0.00,meteohub,2013-10-04 17:37:00,
2013-10-04 12:02:00,33.4,27.7,24.51,North,0,0.0,0.0,79,0.00,,,0.00,meteohub,2013-10-04 18:02:00,
2013-10-04 12:07:00,33.4,27.7,24.51,North,0,0.0,0.0,79,0.00,,,0.00,meteohub,2013-10-04 18:07:00,
2013-10-04 12:12:00,32.4,26.2,24.51,North,0,0.0,0.0,78,0.00,,,0.00,meteohub,2013-10-04 18:12:00,
2013-10-04 12:17:00,31.5,26.2,24.51,North,0,0.0,0.0,81,0.00,,,0.00,meteohub,2013-10-04 18:17:00,
2013-10-04 12:22:00,32.0,26.6,24.51,North,0,0.0,0.0,80,0.00,,,0.00,meteohub,2013-10-04 18:22:00,
2013-10-04 12:27:00,30.7,24.6,24.51,North,0,0.0,0.0,78,0.00,,,0.00,meteohub,2013-10-04 18:27:00,
2013-10-04 12:32:00,29.8,24.8,24.51,North,0,0.0,0.0,81,0.00,,,0.00,meteohub,2013-10-04 18:32:00,
2013-10-04 12:37:00,29.5,24.6,24.51,North,0,0.0,0.0,82,0.00,,,0.00,meteohub,2013-10-04 18:37:00,
2013-10-04 12:42:00,30.2,25.2,24.51,North,0,0.0,0.0,81,0.00,,,0.00,meteohub,2013-10-04 18:42:00,
2013-10-04 12:47:00,31.8,25.2,24.51,North,0,0.0,0.0,76,0.00,,,0.00,meteohub,2013-10-04 18:47:00,
2013-10-04 12:52:00,30.7,25.3,24.51,North,0,0.0,0.0,80,0.00,,,0.00,meteohub,2013-10-04 18:52:00,
2013-10-04 12:57:00,31.8,26.6,24.51,North,0,0.0,0.0,81,0.00,,,0.00,meteohub,2013-10-04 18:57:00,
2013-10-04 13:02:00,32.5,26.4,24.51,North,0,0.0,0.0,78,0.00,,,0.00,meteohub,2013-10-04 19:02:00,
2013-10-04 13:07:00,32.5,26.4,24.51,North,0,0.0,0.0,78,0.00,,,0.00,meteohub,2013-10-04 19:07:00,
2013-10-04 13:12:00,32.9,25.2,24.51,North,0,0.0,0.0,73,0.00,,,0.00,meteohub,2013-10-04 19:12:00,
2013-10-04 13:17:00,33.3,25.9,24.51,North,0,0.0,1.0,74,0.00,,,0.00,meteohub,2013-10-04 19:17:00,
2013-10-04 13:22:00,33.3,24.6,24.51,North,0,0.0,1.0,70,0.00,,,0.00,meteohub,2013-10-04 19:22:00,
2013-10-04 13:27:00,33.1,24.6,24.51,North,0,0.0,1.0,71,0.00,,,0.00,meteohub,2013-10-04 19:27:00,
2013-10-04 13:32:00,32.9,23.2,24.50,North,0,0.0,1.0,67,0.00,,,0.00,meteohub,2013-10-04 19:32:00,
2013-10-04 13:37:00,32.9,23.5,24.51,North,0,0.0,0.0,68,0.00,,,0.00,meteohub,2013-10-04 19:37:00,
2013-10-04 13:42:00,33.1,23.7,24.50,North,0,0.0,1.0,68,0.00,,,0.00,meteohub,2013-10-04 19:42:00,
2013-10-04 13:47:00,33.6,23.5,24.50,North,0,0.0,1.0,66,0.00,,,0.00,meteohub,2013-10-04 19:47:00,
2013-10-04 13:52:00,33.4,23.4,24.49,North,0,0.0,1.0,66,0.00,,,0.00,meteohub,2013-10-04 19:52:00,
2013-10-04 13:57:00,33.4,23.0,24.49,North,0,0.0,0.0,65,0.00,,,0.00,meteohub,2013-10-04 19:57:00,
2013-10-04 14:02:00,33.4,22.6,24.48,North,0,0.0,0.0,64,0.00,,,0.00,meteohub,2013-10-04 20:02:00,
2013-10-04 14:07:00,33.4,22.6,24.48,North,0,0.0,0.0,64,0.00,,,0.00,meteohub,2013-10-04 20:07:00,
2013-10-04 14:12:00,33.3,23.9,24.48,North,0,0.0,0.0,68,0.00,,,0.00,meteohub,2013-10-04 20:12:00,
2013-10-04 14:17:00,33.3,23.9,24.48,North,0,0.0,0.0,68,0.00,,,0.00,meteohub,2013-10-04 20:17:00,
2013-10-04 14:22:00,33.1,24.1,24.47,North,0,0.0,0.0,69,0.00,,,0.00,meteohub,2013-10-04 20:22:00,
2013-10-04 14:27:00,32.9,25.2,24.47,North,0,0.0,0.0,73,0.00,,,0.00,meteohub,2013-10-04 20:27:00,
2013-10-04 14:32:00,32.9,23.9,24.46,North,0,0.0,1.0,69,0.00,,,0.00,meteohub,2013-10-04 20:32:00,
2013-10-04 14:37:00,33.1,25.0,24.46,North,0,0.0,1.0,72,0.00,,,0.00,meteohub,2013-10-04 20:37:00,
2013-10-04 14:42:00,33.3,25.2,24.46,North,0,0.0,0.0,72,0.00,,,0.00,meteohub,2013-10-04 20:42:00,
2013-10-04 14:47:00,33.1,24.6,24.46,North,0,0.0,0.0,71,0.00,,,0.00,meteohub,2013-10-04 20:47:00,
2013-10-04 14:52:00,33.3,24.8,24.46,North,0,0.0,0.0,71,0.00,,,0.00,meteohub,2013-10-04 20:52:00,
2013-10-04 14:57:00,33.4,25.3,24.46,North,0,0.0,0.0,72,0.00,,,0.00,meteohub,2013-10-04 20:57:00,
2013-10-04 15:02:00,33.8,25.7,24.46,North,0,0.0,0.0,72,0.00,,,0.00,meteohub,2013-10-04 21:02:00,
2013-10-04 15:07:00,33.8,25.7,24.46,North,0,0.0,0.0,72,0.00,,,0.00,meteohub,2013-10-04 21:07:00,
2013-10-04 15:12:00,33.8,27.3,24.46,North,0,1.0,2.0,77,0.00,,,0.00,meteohub,2013-10-04 21:12:00,
2013-10-04 15:17:00,34.2,27.3,24.45,North,0,1.0,2.0,76,0.00,,,0.00,meteohub,2013-10-04 21:17:00,
2013-10-04 15:22:00,34.3,27.0,24.45,North,0,2.0,2.0,74,0.00,,,0.00,meteohub,2013-10-04 21:22:00,
2013-10-04 15:27:00,34.7,27.3,24.45,North,0,2.0,2.0,74,0.00,,,0.00,meteohub,2013-10-04 21:27:00,
2013-10-04 15:32:00,34.3,27.3,24.46,North,0,1.0,2.0,75,0.00,,,0.00,meteohub,2013-10-04 21:32:00,
2013-10-04 15:37:00,34.2,26.8,24.46,North,0,1.0,2.0,74,0.00,,,0.00,meteohub,2013-10-04 21:37:00,
2013-10-04 15:42:00,34.2,27.3,24.46,North,0,1.0,2.0,76,0.00,,,0.00,meteohub,2013-10-04 21:42:00,
2013-10-04 15:47:00,33.6,27.5,24.46,North,0,1.0,1.0,78,0.00,,,0.00,meteohub,2013-10-04 21:47:00,
2013-10-04 15:52:00,33.6,28.0,24.46,North,0,1.0,2.0,80,0.00,,,0.00,meteohub,2013-10-04 21:52:00,
2013-10-04 15:57:00,33.6,27.5,24.46,North,0,1.0,2.0,78,0.00,,,0.00,meteohub,2013-10-04 21:57:00,
2013-10-04 16:02:00,33.6,27.1,24.46,North,0,0.0,2.0,77,0.00,,,0.00,meteohub,2013-10-04 22:02:00,
2013-10-04 16:07:00,33.6,27.1,24.46,North,0,0.0,1.0,77,0.00,,,0.00,meteohub,2013-10-04 22:07:00,
2013-10-04 16:12:00,34.0,26.6,24.46,NW,315,0.0,1.0,74,0.00,,,0.00,meteohub,2013-10-04 22:12:00,
2013-10-04 16:17:00,34.0,26.6,24.46,West,270,1.0,1.0,74,0.00,,,0.00,meteohub,2013-10-04 22:17:00,
2013-10-04 16:22:00,34.0,27.1,24.46,WNW,293,1.0,1.0,76,0.00,,,0.00,meteohub,2013-10-04 22:22:00,
2013-10-04 16:27:00,34.2,27.3,24.46,NW,315,1.0,1.0,76,0.00,,,0.00,meteohub,2013-10-04 22:27:00,
2013-10-04 16:32:00,34.3,27.0,24.46,NW,315,1.0,1.0,74,0.00,,,0.00,meteohub,2013-10-04 22:32:00,
2013-10-04 16:37:00,34.3,26.2,24.46,NW,315,1.0,1.0,72,0.00,,,0.00,meteohub,2013-10-04 22:37:00,
2013-10-04 16:42:00,34.5,26.1,24.46,NW,315,1.0,1.0,71,0.00,,,0.00,meteohub,2013-10-04 22:42:00,
2013-10-04 16:47:00,34.5,25.7,24.46,NW,315,4.0,4.0,70,0.00,,,0.00,meteohub,2013-10-04 22:47:00,
2013-10-04 16:52:00,34.9,25.3,24.46,West,270,3.0,4.0,68,0.00,,,0.00,meteohub,2013-10-04 22:52:00,
2013-10-04 16:57:00,35.1,25.2,24.46,NW,315,4.0,4.0,67,0.00,,,0.00,meteohub,2013-10-04 22:57:00,
2013-10-04 17:02:00,35.2,25.3,24.46,NW,315,3.0,4.0,67,0.00,,,0.00,meteohub,2013-10-04 23:02:00,
2013-10-04 17:07:00,35.2,25.3,24.46,NW,315,3.0,4.0,67,0.00,,,0.00,meteohub,2013-10-04 23:07:00,
2013-10-04 17:12:00,35.6,25.0,24.46,WNW,293,4.0,4.0,65,0.00,,,0.00,meteohub,2013-10-04 23:12:00,
2013-10-04 17:17:00,35.8,24.8,24.46,West,270,3.0,4.0,64,0.00,,,0.00,meteohub,2013-10-04 23:17:00,
2013-10-04 17:22:00,36.1,25.2,24.46,NW,315,2.0,4.0,64,0.00,,,0.00,meteohub,2013-10-04 23:22:00,
2013-10-04 17:27:00,36.3,25.0,24.46,West,270,3.0,4.0,63,0.00,,,0.00,meteohub,2013-10-04 23:27:00,
2013-10-04 17:32:00,36.3,25.0,24.46,West,270,3.0,4.0,63,0.00,,,0.00,meteohub,2013-10-04 23:32:00,
2013-10-04 17:37:00,36.5,24.8,24.46,West,270,2.0,3.0,62,0.00,,,0.00,meteohub,2013-10-04 23:37:00,
2013-10-04 17:42:00,37.0,25.2,24.46,WSW,248,4.0,4.0,62,0.00,,,0.00,meteohub,2013-10-04 23:42:00,
2013-10-04 17:47:00,37.4,25.2,24.45,SW,225,3.0,4.0,61,0.00,,,0.00,meteohub,2013-10-04 23:47:00,
2013-10-04 17:52:00,37.6,25.0,24.46,West,270,3.0,4.0,60,0.00,,,0.00,meteohub,2013-10-04 23:52:00,
2013-10-04 17:57:00,37.6,25.0,24.45,West,270,3.0,4.0,60,0.00,,,0.00,meteohub,2013-10-04 23:57:00,
2013-10-04 18:02:00,37.6,25.0,24.45,West,270,3.0,4.0,60,0.00,,,0.00,meteohub,2013-10-05 00:02:00,
2013-10-04 18:07:00,37.6,25.0,24.45,West,270,3.0,4.0,60,0.00,,,0.00,meteohub,2013-10-05 00:07:00,
2013-10-04 18:12:00,37.9,24.1,24.45,West,270,3.0,4.0,57,0.00,,,0.00,meteohub,2013-10-05 00:12:00,
2013-10-04 18:17:00,37.9,24.4,24.45,SW,225,3.0,4.0,58,0.00,,,0.00,meteohub,2013-10-05 00:17:00,
2013-10-04 18:22:00,37.6,24.1,24.45,SW,225,2.0,4.0,58,0.00,,,0.00,meteohub,2013-10-05 00:22:00,
2013-10-04 18:27:00,37.0,24.1,24.45,SW,225,3.0,4.0,59,0.00,,,0.00,meteohub,2013-10-05 00:27:00,
2013-10-04 18:32:00,36.3,23.7,24.45,SSW,203,2.0,4.0,60,0.00,,,0.00,meteohub,2013-10-05 00:32:00,
2013-10-04 18:37:00,36.0,23.4,24.45,South,180,2.0,3.0,60,0.00,,,0.00,meteohub,2013-10-05 00:37:00,
2013-10-04 18:42:00,35.8,23.2,24.45,South,180,0.0,3.0,60,0.00,,,0.00,meteohub,2013-10-05 00:42:00,
2013-10-04 18:47:00,35.4,23.0,24.45,South,180,0.0,3.0,60,0.00,,,0.00,meteohub,2013-10-05 00:47:00,
2013-10-04 18:52:00,35.2,23.2,24.44,South,180,0.0,3.0,61,0.00,,,0.00,meteohub,2013-10-05 00:52:00,
2013-10-04 18:57:00,35.1,22.6,24.45,South,180,0.0,0.0,60,0.00,,,0.00,meteohub,2013-10-05 00:57:00,
2013-10-04 19:02:00,34.7,22.6,24.44,SSW,203,0.0,0.0,61,0.00,,,0.00,meteohub,2013-10-05 01:02:00,
2013-10-04 19:07:00,34.7,22.6,24.44,SSW,203,0.0,0.0,61,0.00,,,0.00,meteohub,2013-10-05 01:07:00,
2013-10-04 19:12:00,34.7,23.0,24.44,SSW,203,0.0,0.0,62,0.00,,,0.00,meteohub,2013-10-05 01:12:00,
2013-10-04 19:17:00,34.5,23.2,24.44,SSW,203,0.0,0.0,63,0.00,,,0.00,meteohub,2013-10-05 01:17:00,
2013-10-04 19:22:00,34.7,24.1,24.44,SW,225,0.0,0.0,65,0.00,,,0.00,meteohub,2013-10-05 01:22:00,
2013-10-04 19:27:00,34.5,23.9,24.44,South,180,0.0,0.0,65,0.00,,,0.00,meteohub,2013-10-05 01:27:00,
2013-10-04 19:32:00,34.7,24.1,24.44,SW,225,0.0,0.0,65,0.00,,,0.00,meteohub,2013-10-05 01:32:00,
2013-10-04 19:37:00,34.3,23.7,24.44,South,180,0.0,0.0,65,0.00,,,0.00,meteohub,2013-10-05 01:37:00,
2013-10-04 19:42:00,34.3,23.7,24.44,South,180,0.0,0.0,65,0.00,,,0.00,meteohub,2013-10-05 01:42:00,
2013-10-04 19:47:00,33.8,23.7,24.43,South,180,0.0,0.0,66,0.00,,,0.00,meteohub,2013-10-05 01:47:00,
2013-10-04 19:52:00,33.8,24.1,24.44,South,180,0.0,0.0,67,0.00,,,0.00,meteohub,2013-10-05 01:52:00,
2013-10-04 19:57:00,33.6,23.9,24.44,South,180,0.0,0.0,67,0.00,,,0.00,meteohub,2013-10-05 01:57:00,
2013-10-04 20:02:00,33.4,24.1,24.44,South,180,0.0,0.0,68,0.00,,,0.00,meteohub,2013-10-05 02:02:00,
2013-10-04 20:07:00,33.4,24.1,24.44,South,180,0.0,0.0,68,0.00,,,0.00,meteohub,2013-10-05 02:07:00,
2013-10-04 20:12:00,34.5,23.9,24.43,SSW,203,0.0,0.0,65,0.00,,,0.00,meteohub,2013-10-05 02:12:00,
2013-10-04 20:17:00,34.9,23.9,24.43,South,180,0.0,0.0,64,0.00,,,0.00,meteohub,2013-10-05 02:17:00,
2013-10-04 20:22:00,34.3,24.4,24.43,SW,225,0.0,0.0,67,0.00,,,0.00,meteohub,2013-10-05 02:22:00,
2013-10-04 20:27:00,33.8,24.4,24.43,South,180,0.0,0.0,68,0.00,,,0.00,meteohub,2013-10-05 02:27:00,
2013-10-04 20:32:00,34.3,23.7,24.43,SW,225,0.0,0.0,65,0.00,,,0.00,meteohub,2013-10-05 02:32:00,
2013-10-04 20:37:00,34.9,23.9,24.44,SW,225,0.0,0.0,64,0.00,,,0.00,meteohub,2013-10-05 02:37:00,
2013-10-04 20:42:00,34.3,24.1,24.43,SW,225,0.0,0.0,66,0.00,,,0.00,meteohub,2013-10-05 02:42:00,
2013-10-04 20:47:00,34.9,23.9,24.43,South,180,7.0,8.0,64,0.00,,,0.00,meteohub,2013-10-05 02:47:00,
2013-10-04 20:52:00,35.1,23.7,24.43,SW,225,7.0,8.0,63,0.00,,,0.00,meteohub,2013-10-05 02:52:00,
2013-10-04 20:57:00,35.2,23.9,24.43,SW,225,8.0,8.0,63,0.00,,,0.00,meteohub,2013-10-05 02:57:00,
2013-10-04 21:02:00,35.2,23.9,24.43,SW,225,8.0,8.0,63,0.00,,,0.00,meteohub,2013-10-05 03:02:00,
2013-10-04 21:07:00,35.2,23.9,24.43,SW,225,8.0,8.0,63,0.00,,,0.00,meteohub,2013-10-05 03:07:00,
2013-10-04 21:12:00,35.2,23.9,24.43,SW,225,9.0,10.0,63,0.00,,,0.00,meteohub,2013-10-05 03:12:00,
2013-10-04 21:17:00,35.1,24.1,24.43,SW,225,11.0,11.0,64,0.00,,,0.00,meteohub,2013-10-05 03:17:00,
2013-10-04 21:22:00,35.1,23.7,24.43,SW,225,12.0,12.0,63,0.00,,,0.00,meteohub,2013-10-05 03:22:00,
2013-10-04 21:27:00,35.2,23.9,24.43,SW,225,23.0,23.0,63,0.00,,,0.00,meteohub,2013-10-05 03:27:00,
2013-10-04 21:32:00,35.2,23.9,24.42,SW,225,21.0,26.0,63,0.00,,,0.00,meteohub,2013-10-05 03:32:00,
2013-10-04 21:37:00,34.9,23.9,24.43,SW,225,22.0,26.0,64,0.00,,,0.00,meteohub,2013-10-05 03:37:00,
2013-10-04 21:42:00,34.7,24.1,24.42,SW,225,19.0,25.0,65,0.00,,,0.00,meteohub,2013-10-05 03:42:00,
2013-10-04 21:47:00,34.7,23.7,24.42,SW,225,21.0,25.0,64,0.00,,,0.00,meteohub,2013-10-05 03:47:00,
2013-10-04 21:52:00,34.7,24.1,24.42,SW,225,21.0,22.0,65,0.00,,,0.00,meteohub,2013-10-05 03:52:00,
2013-10-04 21:57:00,34.5,23.5,24.42,SW,225,21.0,22.0,64,0.00,,,0.00,meteohub,2013-10-05 03:57:00,
2013-10-04 22:02:00,35.1,23.7,24.42,SW,225,21.0,21.0,63,0.00,,,0.00,meteohub,2013-10-05 04:02:00,
2013-10-04 22:07:00,35.1,23.7,24.42,SW,225,21.0,25.0,63,0.00,,,0.00,meteohub,2013-10-05 04:07:00,
2013-10-04 22:12:00,34.9,22.8,24.42,SW,225,21.0,25.0,61,0.00,,,0.00,meteohub,2013-10-05 04:12:00,
2013-10-04 22:17:00,34.7,23.0,24.42,SW,225,22.0,25.0,62,0.00,,,0.00,meteohub,2013-10-05 04:17:00,
2013-10-04 22:22:00,34.7,22.6,24.42,SW,225,21.0,25.0,61,0.00,,,0.00,meteohub,2013-10-05 04:22:00,
2013-10-04 22:27:00,34.7,22.6,24.42,SW,225,21.0,22.0,61,0.00,,,0.00,meteohub,2013-10-05 04:27:00,
2013-10-04 22:32:00,34.5,22.8,24.41,SW,225,20.0,22.0,62,0.00,,,0.00,meteohub,2013-10-05 04:32:00,
2013-10-04 22:37:00,34.3,21.9,24.42,SW,225,22.0,22.0,60,0.00,,,0.00,meteohub,2013-10-05 04:37:00,
2013-10-04 22:42:00,34.7,21.9,24.41,SW,225,20.0,22.0,59,0.00,,,0.00,meteohub,2013-10-05 04:42:00,
2013-10-04 22:47:00,33.8,22.5,24.42,SSW,203,16.0,22.0,63,0.00,,,0.00,meteohub,2013-10-05 04:47:00,
2013-10-04 22:52:00,34.3,21.9,24.41,SW,225,19.0,22.0,60,0.00,,,0.00,meteohub,2013-10-05 04:52:00,
2013-10-04 22:57:00,34.5,22.1,24.41,SW,225,20.0,21.0,60,0.00,,,0.00,meteohub,2013-10-05 04:57:00,
2013-10-04 23:02:00,34.3,21.9,24.41,SW,225,18.0,21.0,60,0.00,,,0.00,meteohub,2013-10-05 05:02:00,
2013-10-04 23:07:00,34.3,21.9,24.41,SW,225,18.0,21.0,60,0.00,,,0.00,meteohub,2013-10-05 05:07:00,
2013-10-04 23:12:00,34.2,21.7,24.42,SW,225,19.0,22.0,60,0.00,,,0.00,meteohub,2013-10-05 05:12:00,
2013-10-04 23:17:00,34.3,21.6,24.41,SW,225,22.0,22.0,59,0.00,,,0.00,meteohub,2013-10-05 05:17:00,
2013-10-04 23:22:00,34.2,21.4,24.41,SW,225,17.0,22.0,59,0.00,,,0.00,meteohub,2013-10-05 05:22:00,
2013-10-04 23:27:00,33.8,22.1,24.41,SW,225,12.0,22.0,62,0.00,,,0.00,meteohub,2013-10-05 05:27:00,
2013-10-04 23:32:00,33.3,22.1,24.41,South,180,11.0,22.0,63,0.00,,,0.00,meteohub,2013-10-05 05:32:00,
2013-10-04 23:37:00,33.4,21.4,24.41,SW,225,15.0,18.0,61,0.00,,,0.00,meteohub,2013-10-05 05:37:00,
2013-10-04 23:42:00,33.6,21.2,24.41,SW,225,14.0,19.0,60,0.00,,,0.00,meteohub,2013-10-05 05:42:00,
2013-10-04 23:47:00,32.9,22.8,24.41,South,180,11.0,19.0,66,0.00,,,0.00,meteohub,2013-10-05 05:47:00,
2013-10-04 23:52:00,32.4,21.6,24.41,SW,225,15.0,19.0,64,0.00,,,0.00,meteohub,2013-10-05 05:52:00,
2013-10-04 23:57:00,33.1,21.6,24.41,SSW,203,15.0,17.0,62,0.00,,,0.00,meteohub,2013-10-05 05:57:00,